User: anonymous
Location: Oshawa
(43.9000°N, 78.8670°W)
Time: 00:12:59
(UTC-04:00)
Language:

Cosmos 1500 - Orbit

View from above orbital plane
View from above orbital plane
View from above satellite
View from above satellite

Ground track
Ground track

The orbit data is extracted from the following two-line orbital elements,

1 14372U 83099A   14207.80798582  .00001137  00000-0  65176-4 0  5927
2 14372 082.5186 304.1085 0019077 144.6725 002.5065 15.11448487677813
Epoch (UTC): 26 July 2014 19:23:29
Eccentricity: 0.0019077
inclination: 82.5186°
perigee height: 518 km
apogee height: 545 km
right ascension of ascending node: 304.1085°
argument of perigee: 144.6725°
revolutions per day: 15.11448487
mean anomaly at epoch: 2.5065°
orbit number at epoch: 67781

The dashed part of the orbit path shows where the satellite is in the earth's shadow,  

DLR